Year,Month,Day,Hour,Minute,Value (Times are PST for windgust in km/hr)
2011,06,22,01,08,1.60
2011,06,22,01,10,1.60
2011,06,22,01,48,1.60
2011,06,22,01,49,1.60
2011,06,22,01,54,1.60
2011,06,22,01,55,1.60
2011,06,22,01,56,1.60
2011,06,22,01,57,1.60
2011,06,22,01,58,1.60
2011,06,22,02,00,1.60
2011,06,22,02,01,1.60
2011,06,22,02,03,1.60
2011,06,22,02,04,3.20
2011,06,22,02,05,3.20
2011,06,22,02,06,1.60
2011,06,22,02,07,1.60
2011,06,22,02,11,1.60
2011,06,22,02,12,1.60
2011,06,22,02,13,3.20
2011,06,22,02,23,1.60
2011,06,22,02,25,1.60
2011,06,22,02,26,1.60
2011,06,22,02,27,1.60
2011,06,22,02,34,1.60
2011,06,22,02,35,1.60
2011,06,22,02,36,1.60
2011,06,22,03,10,1.60
2011,06,22,03,58,1.60
2011,06,22,05,53,1.60
2011,06,22,06,40,1.60
2011,06,22,06,41,1.60
2011,06,22,06,42,3.20
2011,06,22,06,43,1.60
2011,06,22,06,44,1.60
2011,06,22,06,45,1.60
2011,06,22,06,48,1.60
2011,06,22,06,49,3.20
2011,06,22,06,50,1.60
2011,06,22,06,52,3.20
2011,06,22,06,53,3.20
2011,06,22,06,54,4.80
2011,06,22,06,56,1.60
2011,06,22,07,00,1.60
2011,06,22,07,05,1.60
2011,06,22,07,11,1.60
2011,06,22,07,12,1.60
2011,06,22,07,13,1.60
2011,06,22,07,14,1.60
2011,06,22,07,15,3.20
2011,06,22,07,16,3.20
2011,06,22,07,17,3.20
2011,06,22,07,18,3.20
2011,06,22,07,19,3.20
2011,06,22,07,20,3.20
2011,06,22,07,21,3.20
2011,06,22,07,22,1.60
2011,06,22,07,23,1.60
2011,06,22,07,24,3.20
2011,06,22,07,25,3.20
2011,06,22,07,26,1.60
2011,06,22,07,27,1.60
2011,06,22,07,29,1.60
2011,06,22,07,30,1.60
2011,06,22,07,31,3.20
2011,06,22,07,32,1.60
2011,06,22,07,34,1.60
2011,06,22,07,35,1.60
2011,06,22,07,36,3.20
2011,06,22,07,37,3.20
2011,06,22,07,38,1.60
2011,06,22,07,39,1.60
2011,06,22,07,40,4.80
2011,06,22,07,41,3.20
2011,06,22,07,42,1.60
2011,06,22,07,43,1.60
2011,06,22,07,44,6.40
2011,06,22,07,45,4.80
2011,06,22,07,46,3.20
2011,06,22,07,47,1.60
2011,06,22,07,48,1.60
2011,06,22,07,49,3.20
2011,06,22,07,50,3.20
2011,06,22,07,51,3.20
2011,06,22,07,52,3.20
2011,06,22,07,53,4.80
2011,06,22,07,54,6.40
2011,06,22,07,55,6.40
2011,06,22,07,56,3.20
2011,06,22,07,57,4.80
2011,06,22,07,58,4.80
2011,06,22,07,59,4.80
2011,06,22,08,00,4.80
2011,06,22,08,01,3.20
2011,06,22,08,02,3.20
2011,06,22,08,03,1.60
2011,06,22,08,04,1.60
2011,06,22,08,05,1.60
2011,06,22,08,06,3.20
2011,06,22,08,07,4.80
2011,06,22,08,08,3.20
2011,06,22,08,09,6.40
2011,06,22,08,10,8.10
2011,06,22,08,11,6.40
2011,06,22,08,12,4.80
2011,06,22,08,13,6.40
2011,06,22,08,14,9.60
2011,06,22,08,15,6.40
2011,06,22,08,16,8.10
2011,06,22,08,17,8.10
2011,06,22,08,18,8.10
2011,06,22,08,19,6.40
2011,06,22,08,20,4.80
2011,06,22,08,21,4.80
2011,06,22,08,22,4.80
2011,06,22,08,23,8.10
2011,06,22,08,24,6.40
2011,06,22,08,25,1.60
2011,06,22,08,26,4.80
2011,06,22,08,27,1.60
2011,06,22,08,28,6.40
2011,06,22,08,29,6.40
2011,06,22,08,30,6.40
2011,06,22,08,31,4.80
2011,06,22,08,32,6.40
2011,06,22,08,33,6.40
2011,06,22,08,34,6.40
2011,06,22,08,35,3.20
2011,06,22,08,36,1.60
2011,06,22,08,37,4.80
2011,06,22,08,38,4.80
2011,06,22,08,39,3.20
2011,06,22,08,40,1.60
2011,06,22,08,41,3.20
2011,06,22,08,42,3.20
2011,06,22,08,43,3.20
2011,06,22,08,44,1.60
2011,06,22,08,45,1.60
2011,06,22,08,46,3.20
2011,06,22,08,47,1.60
2011,06,22,08,48,3.20
2011,06,22,08,49,1.60
2011,06,22,08,50,3.20
2011,06,22,08,51,6.40
2011,06,22,08,52,6.40
2011,06,22,08,53,1.60
2011,06,22,08,54,1.60
2011,06,22,08,55,3.20
2011,06,22,08,56,6.40
2011,06,22,08,57,6.40
2011,06,22,08,58,8.10
2011,06,22,08,59,8.10
2011,06,22,09,00,9.60
2011,06,22,09,01,8.10
2011,06,22,09,02,8.10
2011,06,22,09,03,8.10
2011,06,22,09,04,6.40
2011,06,22,09,05,4.80
2011,06,22,09,06,4.80
2011,06,22,09,07,9.60
2011,06,22,09,08,6.40
2011,06,22,09,09,8.10
2011,06,22,09,10,9.60
2011,06,22,09,11,9.60
2011,06,22,09,12,6.40
2011,06,22,09,13,6.40
2011,06,22,09,14,4.80
2011,06,22,09,15,6.40
2011,06,22,09,16,4.80
2011,06,22,09,17,1.60
2011,06,22,09,18,3.20
2011,06,22,09,19,1.60
2011,06,22,09,20,1.60
2011,06,22,09,21,1.60
2011,06,22,09,22,1.60
2011,06,22,09,23,1.60
2011,06,22,09,24,3.20
2011,06,22,09,25,6.40
2011,06,22,09,26,4.80
2011,06,22,09,27,3.20
2011,06,22,09,28,6.40
2011,06,22,09,29,4.80
2011,06,22,09,30,6.40
2011,06,22,09,31,4.80
2011,06,22,09,32,6.40
2011,06,22,09,33,6.40
2011,06,22,09,34,3.20
2011,06,22,09,35,3.20
2011,06,22,09,36,3.20
2011,06,22,09,37,3.20
2011,06,22,09,38,3.20
2011,06,22,09,39,3.20
2011,06,22,09,40,3.20
2011,06,22,09,41,4.80
2011,06,22,09,42,6.40
2011,06,22,09,43,3.20
2011,06,22,09,44,4.80
2011,06,22,09,45,4.80
2011,06,22,09,46,4.80
2011,06,22,09,47,4.80
2011,06,22,09,48,4.80
2011,06,22,09,49,8.10
2011,06,22,09,50,6.40
2011,06,22,09,51,6.40
2011,06,22,09,52,4.80
2011,06,22,09,53,4.80
2011,06,22,09,54,3.20
2011,06,22,09,55,3.20
2011,06,22,09,56,8.10
2011,06,22,09,57,4.80
2011,06,22,09,58,4.80
2011,06,22,09,59,9.60
2011,06,22,10,00,9.60
2011,06,22,10,01,11.30
2011,06,22,10,02,8.10
2011,06,22,10,03,4.80
2011,06,22,10,04,3.20
2011,06,22,10,05,6.40
2011,06,22,10,06,3.20
2011,06,22,10,07,3.20
2011,06,22,10,08,6.40
2011,06,22,10,09,4.80
2011,06,22,10,10,6.40
2011,06,22,10,11,4.80
2011,06,22,10,12,9.60
2011,06,22,10,13,11.30
2011,06,22,10,14,11.30
2011,06,22,10,15,11.30
2011,06,22,10,16,9.60
2011,06,22,10,17,14.50
2011,06,22,10,18,12.90
2011,06,22,10,19,9.60
2011,06,22,10,20,6.40
2011,06,22,10,21,14.50
2011,06,22,10,22,8.10
2011,06,22,10,23,8.10
2011,06,22,10,24,4.80
2011,06,22,10,25,9.60
2011,06,22,10,26,8.10
2011,06,22,10,27,8.10
2011,06,22,10,28,8.10
2011,06,22,10,29,8.10
2011,06,22,10,30,11.30
2011,06,22,10,31,8.10
2011,06,22,10,32,14.50
2011,06,22,10,33,9.60
2011,06,22,10,34,11.30
2011,06,22,10,35,16.10
2011,06,22,10,36,11.30
2011,06,22,10,37,8.10
2011,06,22,10,38,9.60
2011,06,22,10,39,11.30
2011,06,22,10,40,12.90
2011,06,22,10,41,14.50
2011,06,22,10,42,17.70
2011,06,22,10,43,12.90
2011,06,22,10,44,14.50
2011,06,22,10,45,14.50
2011,06,22,10,46,17.70
2011,06,22,10,47,20.90
2011,06,22,10,48,16.10
2011,06,22,10,49,16.10
2011,06,22,10,50,16.10
2011,06,22,10,51,16.10
2011,06,22,10,52,16.10
2011,06,22,10,53,16.10
2011,06,22,10,54,16.10
2011,06,22,10,55,16.10
2011,06,22,10,56,14.50
2011,06,22,10,57,16.10
2011,06,22,10,58,11.30
2011,06,22,10,59,16.10
2011,06,22,11,00,17.70
2011,06,22,11,01,17.70
2011,06,22,11,02,14.50
2011,06,22,11,03,16.10
2011,06,22,11,04,19.30
2011,06,22,11,05,19.30
2011,06,22,11,06,16.10
2011,06,22,11,07,19.30
2011,06,22,11,08,11.30
2011,06,22,11,09,19.30
2011,06,22,11,10,14.50
2011,06,22,11,11,17.70
2011,06,22,11,12,14.50
2011,06,22,11,13,11.30
2011,06,22,11,14,11.30
2011,06,22,11,15,11.30
2011,06,22,11,16,14.50
2011,06,22,11,17,12.90
2011,06,22,11,18,9.60
2011,06,22,11,19,17.70
2011,06,22,11,20,17.70
2011,06,22,11,21,17.70
2011,06,22,11,22,16.10
2011,06,22,11,23,14.50
2011,06,22,11,24,14.50
2011,06,22,11,25,16.10
2011,06,22,11,26,16.10
2011,06,22,11,27,17.70
2011,06,22,11,28,16.10
2011,06,22,11,29,16.10
2011,06,22,11,30,16.10
2011,06,22,11,31,17.70
2011,06,22,11,32,16.10
2011,06,22,11,33,14.50
2011,06,22,11,34,17.70
2011,06,22,11,35,14.50
2011,06,22,11,36,16.10
2011,06,22,11,37,16.10
2011,06,22,11,38,22.50
2011,06,22,11,39,17.70
2011,06,22,11,40,17.70
2011,06,22,11,41,16.10
2011,06,22,11,42,22.50
2011,06,22,11,43,16.10
2011,06,22,11,44,20.90
2011,06,22,11,45,19.30
2011,06,22,11,46,19.30
2011,06,22,11,47,16.10
2011,06,22,11,48,16.10
2011,06,22,11,49,20.90
2011,06,22,11,50,20.90
2011,06,22,11,51,20.90
2011,06,22,11,52,14.50
2011,06,22,11,53,16.10
2011,06,22,11,54,19.30
2011,06,22,11,55,14.50
2011,06,22,11,56,19.30
2011,06,22,11,57,16.10
2011,06,22,11,58,8.10
2011,06,22,11,59,11.30
2011,06,22,12,00,14.50
2011,06,22,12,01,16.10
2011,06,22,12,02,17.70
2011,06,22,12,03,19.30
2011,06,22,12,04,11.30
2011,06,22,12,05,14.50
2011,06,22,12,06,14.50
2011,06,22,12,07,9.60
2011,06,22,12,08,19.30
2011,06,22,12,09,9.60
2011,06,22,12,10,12.90
2011,06,22,12,11,20.90
2011,06,22,12,12,24.20
2011,06,22,12,13,17.70
2011,06,22,12,14,16.10
2011,06,22,12,15,20.90
2011,06,22,12,16,17.70
2011,06,22,12,17,19.30
2011,06,22,12,18,17.70
2011,06,22,12,19,22.50
2011,06,22,12,20,17.70
2011,06,22,12,21,11.30
2011,06,22,12,22,6.40
2011,06,22,12,23,17.70
2011,06,22,12,24,17.70
2011,06,22,12,25,20.90
2011,06,22,12,26,12.90
2011,06,22,12,27,9.60
2011,06,22,12,28,14.50
2011,06,22,12,29,11.30
2011,06,22,12,30,19.30
2011,06,22,12,31,9.60
2011,06,22,12,32,16.10
2011,06,22,12,33,9.60
2011,06,22,12,34,17.70
2011,06,22,12,35,20.90
2011,06,22,12,36,17.70
2011,06,22,12,37,17.70
2011,06,22,12,38,19.30
2011,06,22,12,39,17.70
2011,06,22,12,40,20.90
2011,06,22,12,41,19.30
2011,06,22,12,42,22.50
2011,06,22,12,43,16.10
2011,06,22,12,44,19.30
2011,06,22,12,45,19.30
2011,06,22,12,46,25.70
2011,06,22,12,47,20.90
2011,06,22,12,48,16.10
2011,06,22,12,49,17.70
2011,06,22,12,50,11.30
2011,06,22,12,51,16.10
2011,06,22,12,52,22.50
2011,06,22,12,53,12.90
2011,06,22,12,54,19.30
2011,06,22,12,55,19.30
2011,06,22,12,56,14.50
2011,06,22,12,57,16.10
2011,06,22,12,58,9.60
2011,06,22,12,59,8.10
2011,06,22,13,00,8.10
2011,06,22,13,01,9.60
2011,06,22,13,02,19.30
2011,06,22,13,03,14.50
2011,06,22,13,04,17.70
2011,06,22,13,05,14.50
2011,06,22,13,06,11.30
2011,06,22,13,07,6.40
2011,06,22,13,08,9.60
2011,06,22,13,09,19.30
2011,06,22,13,10,19.30
2011,06,22,13,11,12.90
2011,06,22,13,12,17.70
2011,06,22,13,13,19.30
2011,06,22,13,14,11.30
2011,06,22,13,15,9.60
2011,06,22,13,16,11.30
2011,06,22,13,17,20.90
2011,06,22,13,18,17.70
2011,06,22,13,19,17.70
2011,06,22,13,20,20.90
2011,06,22,13,21,19.30
2011,06,22,13,22,14.50
2011,06,22,13,23,16.10
2011,06,22,13,24,19.30
2011,06,22,13,25,19.30
2011,06,22,13,26,11.30
2011,06,22,13,27,22.50
2011,06,22,13,28,19.30
2011,06,22,13,29,16.10
2011,06,22,13,30,19.30
2011,06,22,13,31,19.30
2011,06,22,13,32,20.90
2011,06,22,13,33,24.20
2011,06,22,13,34,24.20
2011,06,22,13,35,19.30
2011,06,22,13,36,17.70
2011,06,22,13,37,19.30
2011,06,22,13,38,25.70
2011,06,22,13,39,20.90
2011,06,22,13,40,20.90
2011,06,22,13,41,17.70
2011,06,22,13,42,12.90
2011,06,22,13,43,20.90
2011,06,22,13,44,19.30
2011,06,22,13,45,25.70
2011,06,22,13,46,12.90
2011,06,22,13,47,17.70
2011,06,22,13,48,17.70
2011,06,22,13,49,14.50
2011,06,22,13,50,17.70
2011,06,22,13,51,17.70
2011,06,22,13,52,22.50
2011,06,22,13,53,22.50
2011,06,22,13,54,17.70
2011,06,22,13,55,17.70
2011,06,22,13,56,19.30
2011,06,22,13,57,24.20
2011,06,22,13,58,20.90
2011,06,22,13,59,19.30
2011,06,22,14,00,14.50
2011,06,22,14,01,17.70
2011,06,22,14,02,29.00
2011,06,22,14,03,17.70
2011,06,22,14,04,9.60
2011,06,22,14,05,9.60
2011,06,22,14,06,9.60
2011,06,22,14,07,11.30
2011,06,22,14,08,17.70
2011,06,22,14,09,16.10
2011,06,22,14,10,16.10
2011,06,22,14,11,24.20
2011,06,22,14,12,17.70
2011,06,22,14,13,16.10
2011,06,22,14,14,24.20
2011,06,22,14,15,14.50
2011,06,22,14,16,19.30
2011,06,22,14,17,19.30
2011,06,22,14,18,11.30
2011,06,22,14,19,11.30
2011,06,22,14,20,11.30
2011,06,22,14,21,24.20
2011,06,22,14,22,24.20
2011,06,22,14,23,27.40
2011,06,22,14,24,27.40
2011,06,22,14,25,20.90
2011,06,22,14,26,20.90
2011,06,22,14,27,17.70
2011,06,22,14,28,17.70
2011,06,22,14,29,22.50
2011,06,22,14,30,20.90
2011,06,22,14,31,22.50
2011,06,22,14,32,27.40
2011,06,22,14,33,20.90
2011,06,22,14,34,22.50
2011,06,22,14,35,29.00
2011,06,22,14,36,20.90
2011,06,22,14,37,24.20
2011,06,22,14,38,25.70
2011,06,22,14,39,27.40
2011,06,22,14,40,27.40
2011,06,22,14,41,25.70
2011,06,22,14,42,25.70
2011,06,22,14,43,22.50
2011,06,22,14,44,20.90
2011,06,22,14,45,29.00
2011,06,22,14,46,27.40
2011,06,22,14,47,25.70
2011,06,22,14,48,25.70
2011,06,22,14,49,19.30
2011,06,22,14,50,19.30
2011,06,22,14,51,22.50
2011,06,22,14,52,20.90
2011,06,22,14,53,11.30
2011,06,22,14,54,9.60
2011,06,22,14,55,8.10
2011,06,22,14,56,25.70
2011,06,22,14,57,11.30
2011,06,22,14,58,8.10
2011,06,22,14,59,17.70
2011,06,22,15,00,20.90
2011,06,22,15,01,8.10
2011,06,22,15,02,9.60
2011,06,22,15,03,20.90
2011,06,22,15,04,16.10
2011,06,22,15,05,17.70
2011,06,22,15,06,24.20
2011,06,22,15,07,11.30
2011,06,22,15,08,16.10
2011,06,22,15,09,19.30
2011,06,22,15,10,17.70
2011,06,22,15,11,19.30
2011,06,22,15,12,22.50
2011,06,22,15,13,20.90
2011,06,22,15,14,22.50
2011,06,22,15,15,24.20
2011,06,22,15,16,25.70
2011,06,22,15,17,20.90
2011,06,22,15,18,24.20
2011,06,22,15,19,20.90
2011,06,22,15,20,22.50
2011,06,22,15,21,25.70
2011,06,22,15,22,22.50
2011,06,22,15,23,24.20
2011,06,22,15,24,27.40
2011,06,22,15,25,30.60
2011,06,22,15,26,22.50
2011,06,22,15,27,25.70
2011,06,22,15,28,25.70
2011,06,22,15,29,29.00
2011,06,22,15,30,25.70
2011,06,22,15,31,24.20
2011,06,22,15,32,24.20
2011,06,22,15,33,24.20
2011,06,22,15,34,20.90
2011,06,22,15,35,17.70
2011,06,22,15,36,11.30
2011,06,22,15,37,9.60
2011,06,22,15,38,25.70
2011,06,22,15,39,11.30
2011,06,22,15,40,20.90
2011,06,22,15,41,16.10
2011,06,22,15,42,8.10
2011,06,22,15,43,14.50
2011,06,22,15,44,9.60
2011,06,22,15,45,8.10
2011,06,22,15,46,8.10
2011,06,22,15,47,16.10
2011,06,22,15,48,17.70
2011,06,22,15,49,14.50
2011,06,22,15,50,22.50
2011,06,22,15,51,19.30
2011,06,22,15,52,16.10
2011,06,22,15,53,11.30
2011,06,22,15,54,14.50
2011,06,22,15,55,22.50
2011,06,22,15,56,24.20
2011,06,22,15,57,27.40
2011,06,22,15,58,20.90
2011,06,22,15,59,9.60
2011,06,22,16,00,19.30
2011,06,22,16,01,20.90
2011,06,22,16,02,24.20
2011,06,22,16,03,19.30
2011,06,22,16,04,19.30
2011,06,22,16,05,9.60
2011,06,22,16,06,14.50
2011,06,22,16,07,11.30
2011,06,22,16,08,16.10
2011,06,22,16,09,19.30
2011,06,22,16,10,20.90
2011,06,22,16,11,19.30
2011,06,22,16,12,22.50
2011,06,22,16,13,22.50
2011,06,22,16,14,22.50
2011,06,22,16,15,9.60
2011,06,22,16,16,16.10
2011,06,22,16,17,16.10
2011,06,22,16,18,8.10
2011,06,22,16,19,9.60
2011,06,22,16,20,14.50
2011,06,22,16,21,4.80
2011,06,22,16,22,4.80
2011,06,22,16,23,8.10
2011,06,22,16,24,6.40
2011,06,22,16,25,6.40
2011,06,22,16,26,6.40
2011,06,22,16,27,6.40
2011,06,22,16,28,9.60
2011,06,22,16,29,4.80
2011,06,22,16,30,6.40
2011,06,22,16,31,6.40
2011,06,22,16,32,8.10
2011,06,22,16,33,6.40
2011,06,22,16,34,3.20
2011,06,22,16,35,6.40
2011,06,22,16,36,4.80
2011,06,22,16,37,8.10
2011,06,22,16,38,6.40
2011,06,22,16,39,6.40
2011,06,22,16,40,6.40
2011,06,22,16,41,4.80
2011,06,22,16,42,6.40
2011,06,22,16,43,8.10
2011,06,22,16,44,9.60
2011,06,22,16,45,9.60
2011,06,22,16,46,11.30
2011,06,22,16,47,12.90
2011,06,22,16,48,9.60
2011,06,22,16,49,8.10
2011,06,22,16,50,3.20
2011,06,22,16,51,11.30
2011,06,22,16,52,9.60
2011,06,22,16,53,9.60
2011,06,22,16,54,12.90
2011,06,22,16,55,8.10
2011,06,22,16,56,8.10
2011,06,22,16,57,8.10
2011,06,22,16,58,8.10
2011,06,22,16,59,16.10
2011,06,22,17,00,16.10
2011,06,22,17,01,9.60
2011,06,22,17,02,9.60
2011,06,22,17,03,17.70
2011,06,22,17,04,24.20
2011,06,22,17,05,19.30
2011,06,22,17,06,9.60
2011,06,22,17,07,20.90
2011,06,22,17,08,16.10
2011,06,22,17,09,9.60
2011,06,22,17,10,16.10
2011,06,22,17,11,11.30
2011,06,22,17,12,8.10
2011,06,22,17,13,9.60
2011,06,22,17,14,20.90
2011,06,22,17,15,17.70
2011,06,22,17,16,8.10
2011,06,22,17,17,8.10
2011,06,22,17,18,8.10
2011,06,22,17,19,9.60
2011,06,22,17,20,16.10
2011,06,22,17,21,12.90
2011,06,22,17,22,11.30
2011,06,22,17,23,9.60
2011,06,22,17,24,11.30
2011,06,22,17,25,6.40
2011,06,22,17,26,4.80
2011,06,22,17,27,6.40
2011,06,22,17,28,8.10
2011,06,22,17,29,9.60
2011,06,22,17,30,4.80
2011,06,22,17,31,4.80
2011,06,22,17,32,4.80
2011,06,22,17,33,6.40
2011,06,22,17,34,16.10
2011,06,22,17,35,11.30
2011,06,22,17,36,9.60
2011,06,22,17,37,16.10
2011,06,22,17,38,9.60
2011,06,22,17,39,11.30
2011,06,22,17,40,6.40
2011,06,22,17,41,8.10
2011,06,22,17,42,11.30
2011,06,22,17,43,16.10
2011,06,22,17,44,6.40
2011,06,22,17,45,9.60
2011,06,22,17,46,8.10
2011,06,22,17,47,4.80
2011,06,22,17,48,6.40
2011,06,22,17,49,8.10
2011,06,22,17,50,3.20
2011,06,22,17,51,3.20
2011,06,22,17,52,3.20
2011,06,22,17,53,1.60
2011,06,22,17,54,9.60
2011,06,22,17,55,8.10
2011,06,22,17,56,6.40
2011,06,22,17,57,6.40
2011,06,22,17,58,8.10
2011,06,22,17,59,6.40
2011,06,22,18,00,6.40
2011,06,22,18,01,1.60
2011,06,22,18,02,1.60
2011,06,22,18,03,6.40
2011,06,22,18,04,6.40
2011,06,22,18,05,6.40
2011,06,22,18,06,11.30
2011,06,22,18,07,9.60
2011,06,22,18,08,6.40
2011,06,22,18,09,4.80
2011,06,22,18,10,4.80
2011,06,22,18,11,1.60
2011,06,22,18,12,1.60
2011,06,22,18,13,8.10
2011,06,22,18,14,6.40
2011,06,22,18,15,6.40
2011,06,22,18,16,4.80
2011,06,22,18,18,3.20
2011,06,22,18,19,3.20
2011,06,22,18,20,6.40
2011,06,22,18,21,4.80
2011,06,22,18,22,6.40
2011,06,22,18,23,6.40
2011,06,22,18,24,16.10
2011,06,22,18,25,19.30
2011,06,22,18,26,11.30
2011,06,22,18,27,11.30
2011,06,22,18,28,19.30
2011,06,22,18,29,14.50
2011,06,22,18,30,6.40
2011,06,22,18,31,19.30
2011,06,22,18,32,6.40
2011,06,22,18,33,9.60
2011,06,22,18,34,4.80
2011,06,22,18,35,8.10
2011,06,22,18,36,16.10
2011,06,22,18,37,16.10
2011,06,22,18,38,4.80
2011,06,22,18,39,8.10
2011,06,22,18,40,9.60
2011,06,22,18,41,19.30
2011,06,22,18,42,14.50
2011,06,22,18,43,11.30
2011,06,22,18,44,4.80
2011,06,22,18,45,6.40
2011,06,22,18,46,20.90
2011,06,22,18,47,19.30
2011,06,22,18,48,17.70
2011,06,22,18,49,14.50
2011,06,22,18,50,17.70
2011,06,22,18,51,8.10
2011,06,22,18,52,11.30
2011,06,22,18,53,16.10
2011,06,22,18,54,16.10
2011,06,22,18,55,14.50
2011,06,22,18,56,9.60
2011,06,22,18,57,8.10
2011,06,22,18,58,4.80
2011,06,22,18,59,9.60
2011,06,22,19,00,17.70
2011,06,22,19,01,17.70
2011,06,22,19,02,20.90
2011,06,22,19,03,22.50
2011,06,22,19,04,22.50
2011,06,22,19,05,17.70
2011,06,22,19,06,19.30
2011,06,22,19,07,17.70
2011,06,22,19,08,20.90
2011,06,22,19,09,24.20
2011,06,22,19,10,20.90
2011,06,22,19,11,22.50
2011,06,22,19,12,24.20
2011,06,22,19,13,17.70
2011,06,22,19,14,17.70
2011,06,22,19,15,14.50
2011,06,22,19,16,16.10
2011,06,22,19,17,20.90
2011,06,22,19,18,20.90
2011,06,22,19,19,19.30
2011,06,22,19,20,20.90
2011,06,22,19,21,19.30
2011,06,22,19,22,25.70
2011,06,22,19,23,24.20
2011,06,22,19,24,22.50
2011,06,22,19,25,22.50
2011,06,22,19,26,24.20
2011,06,22,19,27,40.20
2011,06,22,19,28,24.20
2011,06,22,19,29,27.40
2011,06,22,19,30,19.30
2011,06,22,19,31,19.30
2011,06,22,19,32,27.40
2011,06,22,19,33,25.70
2011,06,22,19,34,16.10
2011,06,22,19,35,14.50
2011,06,22,19,36,19.30
2011,06,22,19,37,14.50
2011,06,22,19,38,25.70
2011,06,22,19,39,29.00
2011,06,22,19,40,16.10
2011,06,22,19,41,19.30
2011,06,22,19,42,25.70
2011,06,22,19,43,35.40
2011,06,22,19,44,16.10
2011,06,22,19,45,17.70
2011,06,22,19,46,24.20
2011,06,22,19,47,19.30
2011,06,22,19,48,24.20
2011,06,22,19,49,25.70
2011,06,22,19,50,32.20
2011,06,22,19,51,40.20
2011,06,22,19,52,32.20
2011,06,22,19,53,33.80
2011,06,22,19,54,33.80
2011,06,22,19,55,32.20
2011,06,22,19,56,37.00
2011,06,22,19,57,29.00
2011,06,22,19,58,46.70
2011,06,22,19,59,37.00
2011,06,22,20,00,32.20
2011,06,22,20,01,40.20
2011,06,22,20,02,25.70
2011,06,22,20,03,24.20
2011,06,22,20,04,35.40
2011,06,22,20,05,33.80
2011,06,22,20,06,38.60
2011,06,22,20,07,40.20
2011,06,22,20,08,38.60
2011,06,22,20,09,38.60
2011,06,22,20,10,41.80
2011,06,22,20,11,38.60
2011,06,22,20,12,41.80
2011,06,22,20,13,29.00
2011,06,22,20,14,48.30
2011,06,22,20,15,38.60
2011,06,22,20,16,41.80
2011,06,22,20,17,43.50
2011,06,22,20,18,37.00
2011,06,22,20,19,33.80
2011,06,22,20,20,30.60
2011,06,22,20,21,45.10
2011,06,22,20,22,33.80
2011,06,22,20,23,51.50
2011,06,22,20,24,35.40
2011,06,22,20,25,37.00
2011,06,22,20,26,41.80
2011,06,22,20,27,40.20
2011,06,22,20,28,38.60
2011,06,22,20,29,38.60
2011,06,22,20,30,41.80
2011,06,22,20,31,46.70
2011,06,22,20,32,35.40
2011,06,22,20,33,40.20
2011,06,22,20,34,43.50
2011,06,22,20,35,40.20
2011,06,22,20,36,37.00
2011,06,22,20,37,37.00
2011,06,22,20,38,53.10
2011,06,22,20,39,46.70
2011,06,22,20,40,53.10
2011,06,22,20,41,45.10
2011,06,22,20,42,53.10
2011,06,22,20,43,43.50
2011,06,22,20,44,57.90
2011,06,22,20,45,41.80
2011,06,22,20,46,41.80
2011,06,22,20,47,41.80
2011,06,22,20,48,54.70
2011,06,22,20,49,43.50
2011,06,22,20,50,40.20
2011,06,22,20,51,37.00
2011,06,22,20,52,41.80
2011,06,22,20,53,43.50
2011,06,22,20,54,62.70
2011,06,22,20,55,38.60
2011,06,22,20,56,38.60
2011,06,22,20,57,53.10
2011,06,22,20,58,43.50
2011,06,22,20,59,49.90
2011,06,22,21,00,48.30
2011,06,22,21,01,59.50
2011,06,22,21,02,37.00
2011,06,22,21,03,51.50
2011,06,22,21,04,40.20
2011,06,22,21,05,45.10
2011,06,22,21,06,43.50
2011,06,22,21,07,41.80
2011,06,22,21,08,51.50
2011,06,22,21,09,53.10
2011,06,22,21,10,37.00
2011,06,22,21,11,45.10
2011,06,22,21,12,48.30
2011,06,22,21,13,32.20
2011,06,22,21,14,30.60
2011,06,22,21,15,33.80
2011,06,22,21,16,22.50
2011,06,22,21,17,37.00
2011,06,22,21,18,35.40
2011,06,22,21,19,35.40
2011,06,22,21,20,29.00
2011,06,22,21,21,46.70
2011,06,22,21,22,30.60
2011,06,22,21,23,35.40
2011,06,22,21,24,38.60
2011,06,22,21,25,46.70
2011,06,22,21,26,38.60
2011,06,22,21,27,45.10
2011,06,22,21,28,41.80
2011,06,22,21,29,53.10
2011,06,22,21,30,53.10
2011,06,22,21,31,46.70
2011,06,22,21,32,53.10
2011,06,22,21,33,53.10
2011,06,22,21,34,53.10
2011,06,22,21,35,59.50
2011,06,22,21,36,41.80
2011,06,22,21,37,41.80
2011,06,22,21,38,40.20
2011,06,22,21,39,32.20
2011,06,22,21,40,43.50
2011,06,22,21,41,43.50
2011,06,22,21,42,45.10
2011,06,22,21,43,49.90
2011,06,22,21,44,61.20
2011,06,22,21,45,41.80
2011,06,22,21,46,54.70
2011,06,22,21,47,48.30
2011,06,22,21,48,35.40
2011,06,22,21,49,40.20
2011,06,22,21,50,49.90
2011,06,22,21,51,45.10
2011,06,22,21,52,45.10
2011,06,22,21,53,46.70
2011,06,22,21,54,43.50
2011,06,22,21,55,53.10
2011,06,22,21,56,49.90
2011,06,22,21,57,43.50
2011,06,22,21,58,54.70
2011,06,22,21,59,40.20
2011,06,22,22,00,53.10
2011,06,22,22,01,43.50
2011,06,22,22,02,45.10
2011,06,22,22,03,41.80
2011,06,22,22,04,53.10
2011,06,22,22,05,46.70
2011,06,22,22,06,43.50
2011,06,22,22,07,46.70
2011,06,22,22,08,38.60
2011,06,22,22,09,41.80
2011,06,22,22,10,43.50
2011,06,22,22,11,53.10
2011,06,22,22,12,51.50
2011,06,22,22,13,37.00
2011,06,22,22,14,49.90
2011,06,22,22,15,35.40
2011,06,22,22,16,37.00
2011,06,22,22,17,45.10
2011,06,22,22,18,27.40
2011,06,22,22,19,46.70
2011,06,22,22,20,32.20
2011,06,22,22,21,49.90
2011,06,22,22,22,35.40
2011,06,22,22,23,61.20
2011,06,22,22,24,46.70
2011,06,22,22,25,38.60
2011,06,22,22,26,53.10
2011,06,22,22,27,43.50
2011,06,22,22,28,43.50
2011,06,22,22,29,33.80
2011,06,22,22,30,43.50
2011,06,22,22,31,45.10
2011,06,22,22,32,43.50
2011,06,22,22,33,40.20
2011,06,22,22,34,48.30
2011,06,22,22,35,45.10
2011,06,22,22,36,37.00
2011,06,22,22,37,46.70
2011,06,22,22,38,41.80
2011,06,22,22,39,51.50
2011,06,22,22,40,48.30
2011,06,22,22,41,45.10
2011,06,22,22,42,32.20
2011,06,22,22,43,40.20
2011,06,22,22,44,38.60
2011,06,22,22,45,49.90
2011,06,22,22,46,45.10
2011,06,22,22,47,37.00
2011,06,22,22,48,37.00
2011,06,22,22,49,37.00
2011,06,22,22,50,45.10
2011,06,22,22,51,40.20
2011,06,22,22,52,33.80
2011,06,22,22,53,35.40
2011,06,22,22,54,38.60
2011,06,22,22,55,41.80
2011,06,22,22,56,57.90
2011,06,22,22,57,49.90
2011,06,22,22,58,40.20
2011,06,22,22,59,37.00
2011,06,22,23,00,40.20
2011,06,22,23,01,32.20
2011,06,22,23,02,43.50
2011,06,22,23,03,45.10
2011,06,22,23,04,33.80
2011,06,22,23,05,48.30
2011,06,22,23,06,33.80
2011,06,22,23,07,51.50
2011,06,22,23,08,35.40
2011,06,22,23,09,43.50
2011,06,22,23,10,49.90
2011,06,22,23,11,41.80
2011,06,22,23,12,32.20
2011,06,22,23,13,43.50
2011,06,22,23,14,37.00
2011,06,22,23,15,41.80
2011,06,22,23,16,43.50
2011,06,22,23,17,37.00
2011,06,22,23,18,40.20
2011,06,22,23,19,37.00
2011,06,22,23,20,41.80
2011,06,22,23,21,43.50
2011,06,22,23,22,33.80
2011,06,22,23,23,37.00
2011,06,22,23,24,40.20
2011,06,22,23,25,33.80
2011,06,22,23,26,30.60
2011,06,22,23,27,49.90
2011,06,22,23,28,30.60
2011,06,22,23,29,53.10
2011,06,22,23,30,33.80
2011,06,22,23,31,32.20
2011,06,22,23,32,38.60
2011,06,22,23,33,35.40
2011,06,22,23,34,24.20
2011,06,22,23,35,30.60
2011,06,22,23,36,35.40
2011,06,22,23,37,25.70
2011,06,22,23,38,37.00
2011,06,22,23,39,33.80
2011,06,22,23,40,37.00
2011,06,22,23,41,45.10
2011,06,22,23,42,40.20
2011,06,22,23,43,35.40
2011,06,22,23,44,33.80
2011,06,22,23,45,40.20
2011,06,22,23,46,38.60
2011,06,22,23,47,33.80
2011,06,22,23,48,43.50
2011,06,22,23,49,33.80
2011,06,22,23,50,32.20
2011,06,22,23,51,35.40
2011,06,22,23,52,19.30
2011,06,22,23,53,38.60
2011,06,22,23,54,24.20
2011,06,22,23,55,25.70
2011,06,22,23,56,25.70
2011,06,22,23,57,27.40
2011,06,22,23,58,25.70
2011,06,22,23,59,24.20
